CAPE
2077 2168 2476 2133 1720 1146 1228 1460 1718 1979 2109 1802 1861 1719 1602 1939 1947 1905 1923 2247 2737 3143 3478 3958 3667 4260 4061 5091 4262 3661 4683 3953 4006 3801 3232 3489 3241 2724 2179 2064 1987 2011
2016 2083 2168 1967 1938 1543 1234 1325 1582 1484 1947 1806 1319 1143 1390 1682 1784 2043 2168 2200 2551 2601 2900 3134 3569 3955 4143 3727 4527 3583 4619 4317 3900 3475 3720 4087 3521 3593 2742 2224 1788 1883
2149 2057 2169 1945 1550 1829 1056 1249 1535 1582 1341 1512 1242 1012 1063 1411 1750 1963 2187 2233 2120 1952 2410 2740 2819 3157 3426 3769 4864 3693 4198 4760 3781 3352 3861 3741 3734 3692 3713 2027 1504 1906
2391 1995 1878 1816 1254 1281 1322 1106 1409 1636 934 1150 1273 934 854 925 1324 1772 2141 2148 1957 1876 2001 2193 2159 2307 2726 3054 3910 3998 4138 4824 4290 3882 4379 4652 3738 3482 3520 2749 1953 1345
2630 2013 1605 1659 1293 1180 1394 1054 928 1334 1100 750 1071 994 946 918 1002 1387 1760 1900 2060 2003 1889 2120 2217 2128 2359 2718 3093 3494 3506 3839 3860 4016 4229 5084 4364 3549 3404 2997 2889 2239
2992 2472 2035 1658 1421 1312 1127 1212 1135 694 1025 666 819 634 983 1126 912 1012 1436 1546 1569 1487 1072 1638 1996 2006 2020 2451 2744 2938 2765 2521 2783 3315 3612 3631 3409 3254 2979 3010 3252 2824
3212 3104 2301 1705 1628 1293 1316 1268 1348 1161 803 754 823 718 595 1166 1362 1159 1119 1154 903 918 726 1012 1601 1564 1729 1908 2522 2941 2829 2503 2374 3098 3273 3146 3070 2948 3131 3279 3718 3377
2752 2974 2692 2027 1554 1376 1390 1212 1488 1498 1112 780 448 856 724 792 1535 1540 1128 1034 850 753 848 702 1413 1548 1474 1582 2137 2500 2733 2010 2207 2440 2815 3143 2998 2821 2708 2828 3526 3543
2432 2699 2835 2337 1735 1218 1192 982 1202 1570 1409 964 519 563 911 876 951 1238 1255 1274 1152 967 1143 1002 1458 1566 1551 1374 1622 1996 2324 1671 1133 1674 2047 2344 2500 2711 2651 2660 2599 2882
2593 2133 2118 2174 1472 1170 909 807 463 1014 1383 1091 758 365 496 955 823 881 1048 1570 1388 1176 1298 1416 1433 1799 1850 1255 1313 1592 1946 2238 1914 1579 1778 2008 1991 1986 2066 2095 2173 2418
2555 2103 1713 1790 1384 999 822 671 359 197 616 821 691 429 171 597 924 866 1074 1359 1374 1378 1337 1555 1471 1741 2015 1349 952 1189 1755 1761 1746 1754 1726 1765 1812 1889 1851 1873 2044 2072
2581 2474 1702 1420 1479 982 677 645 374 179 138 528 615 475 277 139 654 730 592 1023 1470 1568 1384 1617 1842 1758 2014 1680 871 830 1094 1335 1290 1372 1377 1564 1572 1298 1422 1631 1600 1868
2093 2157 1826 1431 1457 1357 1006 744 573 360 154 202 469 462 294 118 148 683 592 619 1286 1603 1433 1556 1878 1779 2128 2016 1481 790 712 1156 908 907 1080 1257 1510 1334 1122 1054 1097 1169
2509 2418 2041 1603 1534 1993 1599 858 504 439 413 229 369 482 323 155 41 128 608 621 822 1343 1416 1219 1689 1744 1768 1962 1925 1119 503 590 860 876 650 809 770 843 861 650 598 762
2686 2421 2577 2123 2123 2146 1987 1376 946 891 806 689 503 439 423 294 100 2 144 560 723 1024 1261 889 787 1407 1405 1621 1789 1687 715 204 304 717 789 668 674 639 709 748 544 351
2570 2342 2404 2436 2377 2553 2871 2513 1746 1153 689 703 608 524 712 890 547 146 4 175 617 976 1126 977 504 602 1369 1073 1294 1420 1221 243 53 409 681 636 761 534 324 294 428 476
2259 2546 2795 2957 3094 2646 2820 3068 2876 2299 1992 1839 1438 1068 1326 1706 1297 506 147 16 168 610 947 906 636 255 502 1013 1126 1227 1104 1075 493 491 836 799 575 1089 963 303 95 135
2206 2476 2795 2646 2592 2958 2986 3217 3175 2942 2659 2342 1581 1317 2202 1333 1174 1347 1225 536 242 270 536 772 759 405 2 362 1025 1154 1313 1490 820 619 278 445 853 694 715 753 446 106
1604 2269 3027 2999 2516 2781 2935 3086 3306 3282 2856 2437 2034 2031 1778 2382 2440 1872 1982 1699 924 806 470 466 585 626 589 37 463 917 979 996 497 417 391 376 499 990 991 969 1017 795
1853 1294 2086 2953 3045 2751 2405 3010 3258 3356 3042 2538 2315 2310 2337 2256 2170 2345 2242 2511 2096 1639 1420 750 762 708 826 837 722 640 744 830 933 440 288 324 583 777 1137 1385 1697 1477
2231 1557 1273 1766 2919 2656 2590 3133 3000 3329 3240 2868 2350 2304 2443 2545 2411 2384 2403 2391 2234 2084 1914 1390 994 631 756 967 983 897 756 615 1189 980 761 579 520 768 1677 1438 1844 1895
1274 1720 2190 1806 2750 2768 2730 2523 3117 3251 3354 3308 2562 1924 2033 2269 2666 2452 2386 2364 2295 2213 2014 1880 1407 849 794 828 962 971 906 786 1237 1547 1406 1142 982 1101 1153 1696 1896 2189
852 1010 1407 1848 1812 1320 1632 1547 2109 2852 2895 3050 2777 2172 1743 1758 2346 2478 2630 2443 2406 2436 2343 2205 1918 1650 1039 884 860 840 872 815 1410 1522 1640 1566 1460 1476 1458 1492 1608 2122
627 790 1004 1077 1383 1502 1424 1635 1732 1537 1703 2303 2236 2103 1560 1441 1106 2028 2229 2478 2520 2379 2151 2412 2289 2071 1521 1252 1009 834 809 1208 1670 1625 1620 1762 1784 1817 1759 1714 1814 1948
677 668 772 845 936 1276 1426 1412 1412 1372 1784 1869 1956 1917 2096 1926 1936 1977 1842 2002 2199 2104 2001 2061 2252 2114 1785 1584 1362 1146 965 1429 1807 1641 1619 1780 1870 1988 2006 1928 1947 2172
618 706 710 726 719 954 1326 1312 1371 1445 1686 1946 1702 2030 1999 1930 1793 1853 2296 2195 1858 1737 1912 1945 2068 2437 2088 1748 1626 1442 1223 1401 1926 1907 1714 1840 2035 2089 2308 2291 2193 2186
Wind_Speed
9 11 10 9 7 8 7 5 5 3 3 3 3 3 3 4 4 5 4 4 3 3 3 3 3 3 2 4 4 3 5 5 5 6 5 4 5 4 4 3 2 3
9 10 11 9 9 9 8 6 5 4 3 3 3 4 3 4 3 4 4 3 3 2 3 4 4 3 2 2 3 2 3 4 3 5 5 4 4 5 4 3 2 3
10 10 9 8 7 7 5 6 6 5 4 3 3 4 4 4 4 4 4 3 3 3 4 3 4 4 3 3 3 2 2 2 2 2 5 5 5 5 5 3 3 4
11 10 9 7 7 7 6 7 6 6 4 5 3 3 4 6 5 5 4 4 4 3 4 4 4 5 5 4 3 2 3 2 2 2 3 4 4 5 4 5 5 5
12 12 10 9 8 8 8 7 6 6 4 5 5 5 6 5 6 7 6 6 5 5 5 4 4 4 6 5 4 2 2 2 2 2 2 2 3 3 4 5 5 5
14 14 12 10 10 9 8 8 6 5 5 5 5 6 7 6 4 7 8 7 7 5 6 6 4 3 4 5 4 3 2 1 3 3 0 2 3 3 4 4 4 4
14 15 12 11 9 9 9 9 9 7 7 6 8 6 7 7 5 6 7 7 6 6 5 6 5 3 3 4 4 3 2 1 2 2 0 2 3 4 5 4 4 5
15 16 14 13 10 11 10 10 10 10 9 8 7 8 6 6 7 6 6 7 6 7 6 6 6 4 2 3 3 3 1 1 1 3 3 4 5 4 5 6 4 4
16 17 16 13 11 11 10 11 11 11 10 8 8 9 8 5 6 5 6 6 6 6 7 5 5 5 2 1 3 2 1 2 2 2 3 5 4 5 6 5 5 4
17 17 15 14 13 13 11 12 13 13 12 10 9 9 9 8 5 5 6 7 6 6 7 6 6 5 3 2 1 1 1 2 3 4 4 4 6 6 6 6 6 5
17 16 16 15 14 14 12 13 13 14 14 11 11 9 8 11 9 6 6 8 7 7 8 8 7 6 4 2 1 1 2 2 2 2 4 6 7 7 7 6 6 6
17 17 16 15 15 15 14 14 15 14 15 14 12 11 9 10 11 9 7 8 8 8 8 9 8 7 5 3 2 0 2 2 2 2 2 4 5 6 6 6 6 6
18 17 16 17 17 16 16 16 15 15 14 15 15 13 12 10 11 11 10 10 10 9 9 10 10 9 7 5 2 2 2 2 2 2 2 4 4 5 5 4 4 5
22 20 17 18 20 20 18 16 16 15 16 17 18 16 13 12 nan 13 13 12 12 11 10 10 11 10 10 8 5 1 2 3 3 3 2 2 3 3 4 5 4 4
26 23 22 22 20 21 20 18 17 17 18 19 18 17 16 15 14 nan 14 15 14 13 12 12 12 12 12 11 9 7 4 2 2 2 2 3 3 3 3 4 5 5
32 30 28 24 22 22 23 21 18 18 18 17 18 17 18 18 17 16 nan 16 17 17 15 14 13 13 15 16 14 11 9 6 nan 5 4 4 4 3 3 2 2 3
30 28 28 25 26 24 24 23 22 21 22 21 20 19 19 20 18 16 15 nan 17 18 18 16 14 14 19 21 19 14 11 10 7 7 7 5 3 4 4 2 nan 1
28 28 28 27 26 26 26 25 24 23 22 21 19 18 22 19 17 17 17 15 16 17 18 17 15 15 nan 24 23 20 15 11 10 8 7 6 6 4 4 4 2 1
27 23 25 25 24 26 27 27 26 24 22 21 20 21 22 22 20 18 18 17 15 16 15 16 15 17 21 nan 25 23 20 15 10 9 8 7 7 7 6 6 6 4
28 22 20 20 22 24 26 26 26 25 24 24 24 24 23 21 20 19 19 19 17 16 15 14 13 18 24 24 25 24 22 19 13 10 9 8 8 8 8 7 7 6
31 22 17 17 20 21 24 25 26 27 26 27 26 26 25 24 22 21 21 19 18 17 16 14 13 16 24 24 25 25 23 22 16 12 11 10 9 9 10 9 9 9
33 30 26 22 21 23 24 25 28 28 29 29 28 27 27 27 26 24 22 20 19 18 17 15 14 16 23 22 25 26 26 23 18 15 13 12 12 12 12 13 12 12
34 32 32 33 33 29 31 30 30 29 29 31 30 29 27 27 27 26 27 24 22 21 19 17 17 19 24 23 24 27 29 23 20 17 14 13 13 14 15 14 14 14
35 34 34 37 40 40 34 33 32 32 33 35 36 34 30 26 25 26 27 27 25 23 21 21 19 21 26 24 26 31 29 25 22 18 16 14 14 15 16 17 17 15
37 37 39 41 40 40 44 38 35 35 34 39 36 31 29 33 32 29 27 26 26 24 26 22 21 23 29 26 27 31 29 27 24 20 16 14 15 16 17 18 19 20
41 41 43 46 42 41 43 38 34 33 32 35 34 31 27 26 27 27 25 26 24 25 27 26 24 25 30 28 29 29 28 28 26 23 17 16 16 17 19 18 19 20
Wind_Direction
227 232 233 229 226 224 225 221 218 217 203 210 228 239 236 255 236 254 265 272 289 297 292 282 283 277 260 257 262 232 230 242 226 262 256 254 258 250 258 259 231 235
232 235 230 229 225 225 223 224 234 231 230 218 225 246 222 253 255 250 258 271 296 309 301 306 303 302 286 278 280 269 242 246 230 245 246 243 227 230 238 238 225 233
240 240 240 234 235 249 245 240 238 236 242 246 218 230 251 251 261 264 260 262 265 292 301 298 309 312 313 302 293 292 286 275 255 231 243 230 213 216 219 228 255 267
247 245 241 235 229 249 246 250 249 240 234 246 244 240 245 264 271 286 281 293 278 274 287 295 298 308 316 317 304 288 294 295 278 214 228 230 217 197 212 204 205 226
253 251 242 233 229 227 243 246 254 256 237 243 264 268 269 256 286 297 297 294 288 295 287 292 292 298 304 307 309 300 291 301 307 281 212 221 209 201 190 209 206 211
249 251 244 237 232 230 235 246 242 250 257 261 261 270 277 292 283 294 302 309 308 312 311 310 309 305 305 304 304 299 284 279 291 308 219 163 171 180 184 198 206 202
252 252 257 244 238 238 235 239 241 232 246 248 255 251 268 286 295 294 303 311 320 313 324 305 306 302 280 280 292 295 267 201 184 235 159 150 149 140 146 169 187 193
247 251 252 246 246 244 242 243 242 243 238 241 255 261 254 278 297 310 312 314 325 322 318 323 310 306 317 285 280 286 290 249 198 172 163 145 140 123 124 145 168 171
242 249 248 250 251 242 249 251 251 248 247 243 246 256 266 256 283 312 307 317 321 313 314 320 307 323 324 280 265 276 246 161 197 253 171 141 119 113 114 118 122 139
247 246 253 253 250 242 247 250 253 256 252 249 251 247 266 271 271 294 302 302 320 319 319 321 318 323 332 339 285 257 210 175 160 192 202 169 142 124 108 109 111 119
256 253 253 257 255 249 251 251 252 258 259 257 256 253 258 272 277 280 285 301 315 324 325 329 334 336 340 5 334 244 180 172 192 196 190 184 170 155 136 126 116 110
251 252 257 259 259 256 257 254 253 256 262 264 260 261 261 267 281 285 288 298 306 315 324 325 329 331 333 351 26 45 197 174 196 197 205 200 189 173 159 148 136 123
253 254 251 254 255 254 253 255 256 260 262 266 267 263 267 270 279 287 284 293 299 308 318 318 323 329 319 329 349 158 191 213 170 207 210 209 203 186 180 174 157 148
246 245 242 245 249 249 249 250 253 256 260 259 264 270 268 273 nan 284 286 287 294 302 307 306 313 320 320 320 319 289 209 205 204 194 211 224 196 197 190 188 190 180
245 240 239 240 245 249 252 251 249 250 251 255 258 263 266 269 275 nan 284 290 292 295 301 304 310 314 311 315 314 312 283 251 233 234 223 210 209 190 207 213 198 194
234 234 237 233 241 246 251 254 253 252 253 255 257 262 260 260 263 270 nan 288 292 295 297 298 303 303 306 320 314 300 301 285 nan 257 253 250 244 217 185 201 211 207
228 231 234 235 238 243 248 250 252 253 253 255 259 259 260 258 260 269 276 nan 289 293 297 297 299 301 310 310 312 313 299 294 282 264 272 273 279 256 240 224 nan 219
226 231 235 235 237 241 246 248 249 253 254 259 264 269 265 267 268 267 265 274 277 287 295 296 297 302 nan 308 310 313 308 291 286 278 274 280 283 283 269 267 265 241
222 227 235 237 238 243 246 248 249 251 255 259 266 265 267 269 269 272 273 271 272 275 284 291 292 301 301 nan 308 312 315 308 285 275 273 272 276 282 279 270 265 264
238 220 224 238 241 242 246 250 252 254 255 255 256 259 262 267 274 273 270 271 271 270 269 274 281 288 300 303 305 308 312 303 292 290 279 269 268 276 279 282 275 263
233 240 233 232 241 241 245 248 250 251 252 251 252 256 259 260 263 267 267 269 273 271 268 271 274 282 293 302 303 305 307 298 291 290 281 279 276 272 265 274 277 278
227 224 226 230 237 240 239 239 241 243 244 245 243 247 250 252 254 256 260 265 266 267 266 266 265 279 285 295 299 299 300 284 286 285 277 271 274 274 271 267 269 270
225 223 222 223 232 236 232 231 229 232 236 239 238 237 241 250 251 253 252 253 256 260 260 256 256 265 280 287 290 292 283 276 280 280 277 273 266 271 272 274 277 277
222 222 222 224 225 234 238 243 243 238 235 236 231 228 230 235 242 245 249 250 250 252 258 256 252 259 275 280 284 286 286 279 276 278 278 274 270 270 268 270 276 289
225 224 224 228 235 233 243 240 248 251 251 252 250 245 238 234 233 235 238 248 251 251 253 254 250 255 272 276 281 285 284 273 275 274 275 276 273 270 270 268 269 275
228 227 229 231 240 244 250 247 244 247 249 257 264 268 269 271 263 261 255 248 249 256 254 256 253 248 263 276 278 280 287 272 270 272 273 276 272 266 267 269 269 268